This is the latest recevied weather packets stored in our database for station/object KI5QCM-13. If no packets are shown the sender has not sent any weather packets the latest 10 day(s).
| Time | Temp. | Humidity | Pressure | Rain* | Wind** | Luminosity | Snow |
|---|---|---|---|---|---|---|---|
| 1788354661 | 25.56° C | 78% | 1016.3 hPa | 0 mm | - | 56 W/m² | - |
| 1788354021 | 25° C | 81% | 1016.2 hPa | 0 mm | - | 37 W/m² | - |
| 1788353445 | 24.44° C | 82% | 1016.1 hPa | 0 mm | - | 31 W/m² | - |
| 1788352869 | 23.89° C | 83% | 1016 hPa | 0 mm | - | 26 W/m² | - |
| 1788352278 | 23.33° C | 84% | 1016 hPa | 0 mm | - | 21 W/m² | - |
| 1788351637 | 22.78° C | 86% | 1015.8 hPa | 0 mm | - | 14 W/m² | - |
| 1788351061 | 22.78° C | 87% | 1015.8 hPa | 0 mm | - | 8 W/m² | - |
| 1788350421 | 22.78° C | 86% | 1015.6 hPa | 0 mm | - | 2 W/m² | - |
| 1788349829 | 22.78° C | 86% | 1015.6 hPa | 0 mm | - | 0 W/m² | - |
| 1788349253 | 22.78° C | 85% | 1015.3 hPa | 0 mm | - | 0 W/m² | - |
| 1788348677 | 22.78° C | 85% | 1015.4 hPa | 0 mm | - | 0 W/m² | - |
| 1788348037 | 22.78° C | 85% | 1015.3 hPa | 0 mm | - | 0 W/m² | - |
| 1788347445 | 23.33° C | 85% | 1015.3 hPa | 0 mm | - | 0 W/m² | - |
| 1788346869 | 23.33° C | 84% | 1015.2 hPa | 0 mm | - | 0 W/m² | - |
| 1788346229 | 23.33° C | 83% | 1015.3 hPa | 0 mm | - | 0 W/m² | - |
| 1788345653 | 23.89° C | 82% | 1015.4 hPa | 0 mm | - | 0 W/m² | - |
| 1788345077 | 23.89° C | 81% | 1015.2 hPa | 0 mm | - | 0 W/m² | - |
| 1788344454 | 24.44° C | 79% | 1015.1 hPa | 0 mm | - | 0 W/m² | - |
| 1788343846 | 24.44° C | 78% | 1015.2 hPa | 0 mm | - | 0 W/m² | - |
| 1788343271 | 24.44° C | 79% | 1015.2 hPa | 0 mm | - | 0 W/m² | - |
| 1788342629 | 23.89° C | 80% | 1015.1 hPa | 0 mm | - | 0 W/m² | - |
| 1788342037 | 24.44° C | 79% | 1015.1 hPa | 0 mm | - | 0 W/m² | - |
| 1788341481 | 24.44° C | 78% | 1014.9 hPa | 0 mm | - | 0 W/m² | - |
| 1788340821 | 24.44° C | 78% | 1015 hPa | 0 mm | - | 0 W/m² | - |
| 1788340235 | 25° C | 77% | 1014.7 hPa | 0 mm | - | 0 W/m² | - |
* Rain latest hour (hover to see other rain measurements)
** Current wind speed in m/s (hover to see current wind gust speed)